Back to catalog

DELTA 2 DEB

LostHEO
NORAD 38674·DEBRIS·🇺🇸 United States

Launched Sep 25, 2006 from Cape Canaveral Space Force Station

Loading…

Next Passes (next 24 hours)

TLE

StaleSource: Space-Track

Epoch: Jul 18, 2026, 11:02 UTC

1 38674U 06042D   26199.46015789  .00005056  00000-0  14042-3 0  9997
2 38674  39.9099 254.7858 4053824 181.2718 177.3604  7.40594769  7356

Track DELTA 2 DEB in real time with AllMySat

Download on the App Store